Terug naar catalogus

OPS 4682 DEB

ActiefPO
NORAD 51497·DEBRIS·🇺🇸 United States

Gelanceerd Apr 3, 1965 vanaf Vandenberg Space Force Base

Loading…

Volgende Passages (komende 24 uur)

TLE

VersSource: Space-Track

Epoch: Sep 12, 2026, 18:21 UTC

1 51497U 65027GH  26255.76492672  .00000154  00000-0  52621-3 0  9998
2 51497  90.2623  11.0266 0036089  47.4477 312.9679 12.94413934428804

Volg OPS 4682 DEB in realtime met AllMySat

Download on the App Store